Clinton, NC

3:34 PM EDT on June 26, 2017 (GMT -0400)
Sampson County

Weather History for KCTZ - April, 2014

Change the Weather History Date:

Sunday, April 6, 2014

  Actual Average (KFAY) Record (KFAY)
Temperature  
Mean Temperature 55 °F -  
Max Temperature 61 °F 69 °F 91 °F (2010)
Min Temperature 49 °F 44 °F 31 °F (1920)
Degree Days  
Heating Degree Days 10    
Growing Degree Days 5 (Base 50)    
Moisture  
Dew Point 38 °F    
Average Humidity 52    
Maximum Humidity 74    
Minimum Humidity 41    
Precipitation  
Precipitation 0.00 in - - ()
Sea Level Pressure  
Sea Level Pressure 30.12 in    
Wind  
Wind Speed 6 mph (NE)    
Max Wind Speed 13 mph    
Max Gust Speed 21 mph    
Visibility 10 miles    
Events      
Averages and records for this station are not official NWS values.
T = Trace of Precipitation, MM = Missing Value Source: NWS Daily Summary

Daily Weather History Graph

Daily Weather History Graph

Search for Another Location

Airport or City:

Trip Planner

Search our weather history database for the weather conditions in past years. The results will help you decide how hot, cold, wet, or windy it might be!

Date:

Astronomy

Apr. 06, 2014 Rise Set
Actual Time 6:53 AM EDT 7:38 PM EDT
Civil Twilight 6:27 AM EDT 8:04 PM EDT
Nautical Twilight 5:57 AM EDT 8:34 PM EDT
Astronomical Twilight 5:26 AM EDT 9:05 PM EDT
Moon 11:59 AM EDT (4/6) 1:25 AM EDT (4/6)
Length of Visible Light 13h 36m
Length of Day
12h 45m
Waxing Crescent, 43% of the Moon is Illuminated
Apr 6
Waxing Crescent
Apr 7
First Quarter
Apr 15
Full
Apr 22
Last Quarter
Apr 29
New

Hourly Weather History & Observations

Time (EDT) Temp. Dew Point Humidity Pressure Visibility Wind Dir Wind Speed Gust Speed Precip Events Conditions
12:15 AM 59.4 °F 38.5 °F 46% 30.06 in 10.0 mi NE 3.5 mph - N/A   Clear
12:35 AM 58.5 °F 38.8 °F 48% 30.07 in 10.0 mi NNE 4.6 mph - N/A   Clear
12:55 AM 58.3 °F 38.8 °F 48% 30.07 in 10.0 mi NNE 3.5 mph - N/A   Clear
1:15 AM 57.6 °F 39.2 °F 50% 30.07 in 10.0 mi Calm Calm - N/A   Clear
1:35 AM 57.2 °F 38.5 °F 50% 30.07 in 10.0 mi NE 3.5 mph - N/A   Clear
1:55 AM 56.7 °F 38.8 °F 51% 30.08 in 10.0 mi ENE 3.5 mph - N/A   Clear
2:15 AM 56.3 °F 43.0 °F 61% 30.08 in 10.0 mi ENE 4.6 mph - N/A   Clear
2:35 AM 55.8 °F 47.7 °F 74% 30.08 in 10.0 mi ENE 4.6 mph - N/A   Clear
2:55 AM 55.4 °F 44.6 °F 67% 30.08 in 7.0 mi NE 4.6 mph - N/A   Clear
3:15 AM 54.7 °F 43.7 °F 66% 30.09 in 10.0 mi NE 4.6 mph - N/A   Clear
3:35 AM 53.8 °F 42.4 °F 65% 30.09 in 10.0 mi ENE 4.6 mph - N/A   Clear
3:55 AM 53.2 °F 41.4 °F 64% 30.09 in 10.0 mi NE 6.9 mph - N/A   Clear
4:15 AM 52.7 °F 39.7 °F 61% 30.10 in 10.0 mi NE 5.8 mph - N/A   Clear
4:35 AM 52.2 °F 39.2 °F 61% 30.10 in 10.0 mi ENE 8.1 mph - N/A   Clear
4:55 AM 51.8 °F 40.3 °F 65% 30.10 in 10.0 mi NE 5.8 mph - N/A   Clear
5:15 AM 51.1 °F 41.9 °F 71% 30.10 in 10.0 mi NE 5.8 mph - N/A   Clear
5:35 AM 50.9 °F 40.8 °F 68% 30.11 in 10.0 mi NE 6.9 mph - N/A   Clear
5:55 AM 50.5 °F 39.4 °F 66% 30.13 in 10.0 mi NE 5.8 mph - N/A   Clear
6:15 AM 50.4 °F 36.7 °F 59% 30.13 in 10.0 mi NE 4.6 mph - N/A   Clear
6:35 AM 50.0 °F 36.7 °F 60% 30.14 in 10.0 mi NE 8.1 mph - N/A   Clear
6:55 AM 49.6 °F 36.1 °F 60% 30.14 in 10.0 mi NE 9.2 mph 17.3 mph N/A   Clear
7:15 AM 49.5 °F 35.6 °F 59% 30.14 in 10.0 mi NE 8.1 mph - N/A   Clear
7:35 AM 49.5 °F 35.8 °F 59% 30.16 in 10.0 mi NE 8.1 mph - N/A   Clear
7:55 AM 49.6 °F 36.1 °F 60% 30.15 in 10.0 mi NE 9.2 mph - N/A   Clear
8:15 AM 50.0 °F 36.1 °F 59% 30.16 in 10.0 mi NE 10.4 mph 18.4 mph N/A   Clear
8:35 AM 50.7 °F 36.3 °F 58% 30.15 in 10.0 mi NE 8.1 mph 17.3 mph N/A   Clear
8:55 AM 51.1 °F 34.7 °F 54% 30.15 in 10.0 mi NNE 12.7 mph 20.7 mph N/A   Clear
9:15 AM 51.8 °F 34.7 °F 52% 30.16 in 10.0 mi NNE 12.7 mph 20.7 mph N/A   Clear
9:35 AM 52.7 °F 35.6 °F 52% 30.17 in 10.0 mi NE 12.7 mph 18.4 mph N/A   Scattered Clouds
9:55 AM 53.1 °F 35.1 °F 50% 30.17 in 10.0 mi NE 11.5 mph 19.6 mph N/A   Scattered Clouds
10:15 AM 54.0 °F 34.9 °F 49% 30.16 in 10.0 mi NNE 12.7 mph 17.3 mph N/A   Mostly Cloudy
10:35 AM 54.9 °F 34.2 °F 46% 30.16 in 10.0 mi NNE 8.1 mph 17.3 mph N/A   Mostly Cloudy
10:55 AM 55.6 °F 33.6 °F 44% 30.17 in 10.0 mi ENE 9.2 mph - N/A   Overcast
11:15 AM 56.3 °F 34.7 °F 44% 30.17 in 10.0 mi NNE 10.4 mph 17.3 mph N/A   Overcast
11:35 AM 57.0 °F 34.0 °F 42% 30.18 in 10.0 mi NE 8.1 mph 19.6 mph N/A   Overcast
11:55 AM 57.2 °F 34.5 °F 43% 30.18 in 10.0 mi NE 8.1 mph 17.3 mph N/A   Overcast
12:15 PM 58.3 °F 35.6 °F 43% 30.18 in 10.0 mi NE 9.2 mph - N/A   Overcast
12:35 PM 59.9 °F 36.1 °F 41% 30.17 in 10.0 mi NNE 9.2 mph 18.4 mph N/A   Mostly Cloudy
12:55 PM 58.6 °F 36.0 °F 43% 30.17 in 10.0 mi ENE 8.1 mph - N/A   Mostly Cloudy
1:15 PM 59.2 °F 36.7 °F 43% 30.17 in 10.0 mi ENE 6.9 mph - N/A   Overcast
1:35 PM 60.1 °F 37.0 °F 42% 30.16 in 10.0 mi NE 8.1 mph - N/A   Overcast
1:55 PM 59.9 °F 37.6 °F 44% 30.15 in 10.0 mi NE 6.9 mph - N/A   Overcast
2:15 PM 60.4 °F 38.1 °F 44% 30.16 in 10.0 mi NE 5.8 mph - N/A   Overcast
2:35 PM 61.2 °F 38.8 °F 44% 30.13 in 10.0 mi NNE 10.4 mph 16.1 mph N/A   Overcast
2:55 PM 61.2 °F 39.6 °F 45% 30.13 in 10.0 mi ENE 5.8 mph - N/A   Overcast
3:15 PM 60.8 °F 38.8 °F 44% 30.12 in 10.0 mi ENE 6.9 mph - N/A   Overcast
3:35 PM 61.0 °F 39.4 °F 45% 30.11 in 10.0 mi East 5.8 mph - N/A   Overcast
3:55 PM 60.8 °F 39.7 °F 46% 30.11 in 10.0 mi ENE 4.6 mph - N/A   Overcast
4:15 PM 60.3 °F 40.3 °F 48% 30.12 in 10.0 mi ENE 4.6 mph - N/A   Overcast
4:35 PM 59.9 °F 40.1 °F 48% 30.13 in 10.0 mi Calm Calm - N/A   Overcast
4:55 PM 59.5 °F 39.4 °F 47% 30.12 in 10.0 mi ENE 4.6 mph - N/A   Overcast
5:15 PM 59.5 °F 39.7 °F 48% 30.13 in 10.0 mi ENE 4.6 mph - N/A   Overcast
5:35 PM 59.2 °F 39.4 °F 48% 30.13 in 10.0 mi ENE 3.5 mph - N/A   Overcast
5:55 PM 59.0 °F 39.0 °F 48% 30.13 in 10.0 mi ENE 3.5 mph - N/A   Overcast
6:15 PM 58.5 °F 38.1 °F 47% 30.13 in 10.0 mi East 4.6 mph - N/A   Overcast
6:35 PM 58.5 °F 38.3 °F 47% 30.13 in 10.0 mi NE 3.5 mph - N/A   Overcast
6:55 PM 58.1 °F 37.6 °F 46% 30.13 in 10.0 mi ENE 4.6 mph - N/A   Overcast
7:15 PM 57.4 °F 36.9 °F 46% 30.13 in 10.0 mi ENE 6.9 mph - N/A   Overcast
7:35 PM 57.2 °F 36.5 °F 46% 30.13 in 10.0 mi East 5.8 mph - N/A   Overcast
7:55 PM 56.8 °F 36.7 °F 47% 30.13 in 10.0 mi ENE 5.8 mph - N/A   Overcast
8:15 PM 56.5 °F 36.9 °F 48% 30.13 in 10.0 mi ENE 3.5 mph - N/A   Overcast
8:35 PM 56.3 °F 37.4 °F 49% 30.13 in 10.0 mi ENE 3.5 mph - N/A   Overcast
8:55 PM 56.1 °F 37.2 °F 49% 30.13 in 10.0 mi NE 4.6 mph - N/A   Overcast
9:15 PM 55.6 °F 36.7 °F 49% 30.13 in 10.0 mi ENE 6.9 mph - N/A   Overcast
9:35 PM 55.4 °F 37.2 °F 50% 30.12 in 10.0 mi ENE 4.6 mph - N/A   Overcast
9:55 PM 55.0 °F 37.4 °F 51% 30.11 in 10.0 mi ENE 4.6 mph - N/A   Overcast
10:15 PM 54.9 °F 37.4 °F 52% 30.10 in 10.0 mi East 5.8 mph - N/A   Overcast
10:35 PM 54.5 °F 37.0 °F 52% 30.08 in 10.0 mi ENE 4.6 mph - N/A   Overcast
10:55 PM 54.5 °F 37.4 °F 52% 30.09 in 10.0 mi East 4.6 mph - N/A   Overcast
11:15 PM 54.5 °F 37.6 °F 53% 30.08 in 10.0 mi NE 6.9 mph - N/A   Overcast
11:35 PM 54.5 °F 37.6 °F 53% 30.08 in 10.0 mi NE 3.5 mph - N/A   Overcast
11:55 PM 54.5 °F 37.9 °F 54% 30.08 in 10.0 mi NE 4.6 mph - N/A   Overcast